Wind_Speed
18 19 19 20 21 21 22 23 24 25 26 26 26 26 26 28 31 33 35 36 37 38 38 39 40 40 40 41 41 41 41 40 42 43 43 42 42 42
20 21 22 22 22 23 24 25 25 26 27 28 28 27 27 28 29 31 33 36 38 39 40 41 42 42 42 42 43 43 43 43 43 43 44 45 44 43
22 23 23 24 24 25 26 26 26 26 27 28 29 29 29 29 29 30 32 34 36 39 41 42 43 44 44 44 44 45 45 45 45 44 45 45 46 46
24 25 25 25 26 27 27 28 28 28 28 28 30 30 31 31 31 31 32 33 35 37 39 42 43 45 46 46 46 47 47 47 46 46 46 46 46 46
26 27 27 27 28 28 29 29 29 29 29 30 30 31 32 32 32 32 33 33 35 36 38 40 42 44 46 47 48 48 48 48 48 48 48 48 48 47
28 29 29 29 30 30 31 31 31 31 31 31 31 32 33 33 33 33 33 34 34 36 37 38 40 43 45 47 48 49 49 50 50 50 50 50 50 49
30 31 31 31 32 32 33 33 33 33 33 33 33 33 34 34 34 34 34 35 35 36 37 37 39 41 44 46 48 49 50 50 50 51 51 52 52 51
32 32 33 33 33 34 34 35 35 35 35 35 34 35 34 35 35 35 35 35 36 37 37 38 39 40 41 44 46 48 50 50 51 51 51 52 52 53
34 35 35 36 36 36 36 37 38 38 37 37 36 36 36 36 36 36 36 36 37 38 38 38 39 40 41 42 44 46 49 51 51 51 52 52 52 53
36 36 37 38 39 39 39 39 39 40 39 39 38 38 38 38 38 38 38 38 38 38 39 39 39 39 40 42 42 43 46 48 50 50 51 52 52 53
38 38 39 40 40 41 41 41 41 41 41 40 40 40 40 40 40 39 39 39 38 38 39 39 39 40 40 41 41 42 43 45 48 49 50 51 52 53
41 41 42 42 43 44 44 43 43 43 43 42 42 42 42 41 41 40 40 39 39 39 39 39 39 40 40 41 41 42 43 44 46 48 49 50 51 52
43 44 45 45 46 46 46 46 46 45 45 44 44 43 43 43 42 41 40 40 39 39 39 40 39 40 40 40 41 42 42 43 44 46 48 49 51 52
46 47 47 48 48 49 49 48 48 48 47 46 45 45 45 44 43 42 41 40 40 39 39 39 39 39 39 39 40 41 41 42 43 45 46 48 50 51
49 49 50 51 51 50 50 50 50 49 49 48 46 45 45 45 44 43 42 41 40 39 39 39 39 38 39 39 39 40 40 40 42 43 45 46 48 50
53 53 53 53 53 52 52 52 52 51 50 48 47 46 45 45 44 43 42 41 40 39 39 38 38 38 38 38 38 39 39 40 41 42 43 45 46 48
55 55 55 55 54 54 54 53 52 51 50 48 46 45 45 44 43 42 41 40 40 39 37 37 37 37 37 37 38 38 39 40 40 41 42 43 45 46
57 57 57 57 56 55 54 53 52 51 49 47 46 45 43 42 41 41 40 39 38 37 37 36 36 36 36 36 36 37 38 39 40 41 41 42 42 44
60 59 59 58 57 56 54 53 51 50 48 46 45 44 43 42 40 39 39 38 37 36 35 34 34 35 35 34 34 36 36 37 39 40 40 41 41 42
61 60 59 57 55 53 51 50 49 47 46 45 44 42 41 40 39 38 37 36 35 34 34 34 34 34 34 33 33 34 35 35 37 38 39 40 40 41
59 58 56 54 52 50 48 47 46 45 44 43 41 40 39 38 36 35 35 34 33 33 32 32 32 32 32 32 32 32 34 35 35 36 38 39 38 40
55 53 52 50 48 46 45 44 43 41 40 39 38 37 36 35 33 33 33 32 31 31 30 30 30 31 31 31 30 30 32 33 34 34 36 37 37 38
50 48 47 45 43 41 40 39 37 36 36 35 34 33 32 31 31 30 30 29 29 29 28 29 29 29 29 29 29 29 29 31 32 33 34 35 36 37
Wind_Direction
312 311 311 309 308 307 306 303 302 300 297 294 290 286 281 276 272 268 265 262 260 258 257 255 253 252 251 250 250 249 248 246 243 242 241 240 240 240
310 309 309 308 307 306 306 304 302 300 297 294 293 290 285 280 277 272 268 265 262 260 258 256 254 252 251 250 250 249 249 248 246 244 243 242 241 240
308 308 307 307 306 306 306 305 303 301 299 296 294 292 289 284 280 276 273 269 265 262 259 257 255 253 252 251 250 249 249 248 247 245 244 243 242 241
306 307 307 306 306 306 306 304 303 301 299 296 295 293 291 287 284 281 276 273 270 265 261 259 256 254 253 252 251 250 249 248 247 246 245 244 243 242
304 304 305 306 306 306 306 305 303 301 300 297 295 294 292 289 287 284 281 277 274 270 265 261 258 256 253 252 251 250 249 248 247 246 245 244 243 243
302 303 303 304 304 305 305 305 303 301 300 298 296 294 292 290 288 285 282 280 277 273 269 265 261 258 256 253 251 250 249 248 247 246 245 244 243 242
300 301 301 302 303 303 304 303 303 301 300 298 297 295 293 290 288 286 283 281 279 275 272 269 265 261 258 255 252 251 249 248 247 247 246 244 242 241
299 300 300 301 301 302 302 303 302 301 299 298 297 296 294 291 289 287 285 283 280 277 274 271 268 264 261 257 254 252 249 248 247 246 246 245 243 241
298 298 299 300 300 300 301 301 301 300 299 298 297 296 294 292 290 288 286 283 281 278 275 273 270 267 263 259 256 254 251 248 247 246 245 244 243 241
296 296 298 298 299 299 300 301 300 299 298 297 295 294 293 291 290 288 287 285 282 279 276 274 271 269 265 261 258 255 252 249 247 246 245 244 244 242
294 295 296 297 298 298 299 299 299 299 297 296 294 293 292 291 289 287 286 285 283 280 278 275 271 269 266 262 259 256 253 250 247 246 245 244 243 242
294 294 295 296 296 297 297 298 298 297 296 295 294 292 292 290 289 287 285 284 282 280 278 275 272 270 267 264 260 257 255 251 248 246 244 243 243 242
293 294 294 295 295 296 296 296 296 295 295 293 292 291 291 290 288 286 284 283 281 279 277 274 272 270 268 265 261 259 256 253 250 247 245 243 242 241
292 293 294 294 294 294 295 295 294 294 293 292 291 290 289 288 287 285 283 281 280 278 275 273 271 270 268 264 261 259 256 253 251 248 246 243 242 240
292 292 293 293 293 293 293 293 293 293 292 291 290 289 287 287 285 284 281 279 278 276 274 272 271 269 268 265 261 258 256 254 251 248 246 244 241 240
292 292 292 292 292 292 292 292 292 292 291 290 289 287 286 285 283 282 279 277 276 275 274 271 270 269 268 265 262 258 256 254 251 248 246 244 242 239
291 291 291 291 291 291 291 291 291 290 290 289 287 286 284 284 282 280 278 276 275 274 272 270 269 269 267 265 262 259 256 253 251 248 246 244 242 239
290 291 291 290 290 290 290 289 289 288 287 285 285 284 282 281 280 278 277 276 274 273 271 270 268 268 267 265 262 259 255 252 250 248 246 243 241 239
290 290 290 290 289 289 288 288 287 286 285 283 283 281 279 278 278 276 275 275 273 272 270 269 268 268 267 265 262 259 255 252 249 247 244 242 240 238
290 290 290 289 288 288 287 286 285 284 283 281 280 279 277 277 276 275 274 273 271 270 269 269 269 268 267 265 261 257 254 251 248 245 242 240 238 237
291 291 290 289 288 286 285 284 283 282 280 278 277 275 275 274 273 273 273 271 269 268 268 268 267 267 266 264 261 257 254 250 246 244 241 239 237 235
290 290 289 288 287 285 284 283 281 279 277 276 275 274 273 272 271 271 271 269 267 266 266 266 265 266 265 264 260 256 253 250 247 243 240 238 237 235
290 289 288 286 285 283 283 282 280 278 276 274 272 271 270 269 267 267 268 266 266 265 265 265 265 266 265 262 259 255 251 248 246 243 239 238 236 235
Height
5854 5852 5849 5847 5844 5842 5839 5836 5834 5831 5829 5827 5825 5824 5823 5821 5820 5819 5819 5819 5820 5821 5822 5823 5825 5827 5829 5831 5833 5836 5839 5841 5844 5848 5851 5854 5858 5862
5849 5847 5844 5842 5839 5836 5834 5831 5828 5825 5822 5819 5817 5816 5814 5813 5812 5811 5810 5810 5810 5811 5812 5813 5815 5816 5819 5821 5823 5826 5829 5832 5834 5838 5841 5845 5848 5852
5844 5841 5839 5836 5833 5830 5827 5824 5821 5819 5816 5812 5810 5808 5806 5804 5803 5802 5801 5800 5800 5800 5801 5802 5804 5805 5807 5810 5812 5815 5818 5821 5824 5827 5831 5834 5838 5843
5838 5835 5833 5830 5827 5824 5821 5817 5814 5812 5809 5805 5802 5799 5797 5795 5794 5792 5791 5790 5789 5789 5790 5790 5792 5794 5796 5798 5800 5803 5806 5809 5813 5816 5820 5824 5828 5831
5832 5829 5826 5823 5819 5816 5813 5810 5807 5804 5801 5798 5794 5791 5789 5786 5784 5783 5781 5780 5779 5778 5778 5779 5780 5781 5783 5786 5788 5791 5794 5798 5801 5804 5808 5812 5816 5821
5824 5821 5818 5815 5812 5809 5805 5802 5799 5796 5792 5789 5786 5783 5780 5777 5775 5773 5771 5770 5769 5768 5767 5767 5768 5769 5771 5773 5776 5779 5781 5785 5788 5792 5796 5800 5805 5809
5816 5813 5810 5807 5804 5800 5797 5794 5790 5787 5783 5780 5777 5774 5771 5768 5765 5763 5761 5759 5758 5757 5756 5756 5756 5757 5758 5760 5762 5765 5768 5772 5775 5779 5783 5787 5792 5797
5808 5805 5802 5799 5795 5792 5788 5784 5781 5778 5774 5771 5768 5764 5761 5758 5755 5752 5750 5749 5747 5746 5745 5745 5744 5745 5745 5747 5749 5752 5755 5758 5762 5766 5770 5774 5779 5784
5799 5796 5793 5789 5786 5782 5779 5775 5771 5767 5764 5761 5758 5754 5751 5747 5745 5742 5740 5738 5736 5734 5733 5733 5732 5732 5733 5734 5736 5738 5741 5744 5748 5752 5756 5761 5766 5771
5789 5786 5783 5779 5775 5772 5768 5764 5761 5757 5753 5750 5747 5744 5740 5737 5734 5731 5729 5726 5725 5723 5721 5721 5720 5720 5720 5721 5723 5725 5727 5731 5735 5739 5743 5747 5752 5757
5779 5775 5772 5769 5765 5761 5757 5753 5750 5746 5742 5739 5735 5732 5729 5726 5722 5720 5717 5715 5713 5712 5710 5709 5708 5707 5708 5709 5710 5712 5714 5717 5721 5725 5729 5734 5738 5743
5767 5764 5760 5757 5753 5749 5745 5742 5738 5734 5730 5726 5723 5720 5717 5714 5710 5708 5705 5703 5701 5700 5698 5696 5696 5695 5696 5696 5698 5699 5702 5704 5707 5711 5716 5720 5724 5729
5755 5751 5748 5744 5741 5736 5732 5729 5726 5721 5717 5714 5710 5707 5704 5701 5698 5695 5693 5691 5689 5688 5686 5684 5684 5683 5683 5684 5685 5686 5688 5691 5694 5698 5702 5706 5711 5716
5742 5738 5735 5731 5727 5723 5719 5716 5711 5707 5704 5701 5698 5694 5691 5688 5685 5683 5681 5679 5677 5675 5674 5672 5672 5671 5670 5671 5672 5674 5675 5678 5681 5685 5689 5693 5697 5702
5728 5725 5721 5716 5712 5709 5705 5701 5696 5693 5689 5686 5684 5681 5677 5675 5672 5670 5668 5666 5664 5663 5661 5660 5659 5659 5659 5659 5660 5662 5663 5665 5668 5671 5675 5679 5684 5689
5713 5709 5706 5701 5697 5693 5689 5685 5682 5678 5674 5671 5669 5666 5663 5660 5658 5656 5654 5652 5651 5651 5649 5648 5648 5647 5647 5647 5648 5649 5651 5653 5656 5659 5662 5666 5671 5676
5697 5693 5689 5685 5681 5677 5673 5669 5666 5662 5659 5656 5654 5651 5649 5646 5644 5642 5641 5639 5638 5638 5637 5636 5636 5635 5635 5635 5636 5637 5639 5641 5643 5647 5650 5654 5658 5663
5679 5676 5672 5668 5664 5660 5656 5653 5650 5647 5644 5641 5639 5637 5635 5632 5631 5629 5628 5626 5626 5625 5625 5624 5624 5623 5624 5624 5625 5625 5626 5629 5631 5634 5637 5642 5646 5651
5662 5658 5654 5650 5646 5642 5639 5636 5633 5631 5628 5626 5624 5622 5621 5619 5617 5616 5615 5614 5613 5613 5613 5613 5612 5612 5612 5613 5614 5613 5615 5617 5620 5623 5626 5630 5635 5640
5643 5639 5635 5631 5628 5625 5622 5619 5617 5615 5613 5611 5609 5608 5607 5605 5604 5603 5602 5602 5602 5601 5602 5601 5601 5601 5601 5602 5602 5603 5604 5606 5608 5612 5615 5619 5623 5628
5624 5620 5616 5613 5610 5608 5605 5603 5601 5599 5597 5595 5594 5593 5593 5592 5591 5591 5590 5590 5590 5590 5591 5591 5591 5590 5590 5590 5591 5593 5594 5595 5598 5601 5604 5608 5613 5617
5606 5602 5599 5596 5593 5591 5589 5587 5585 5584 5582 5581 5580 5580 5579 5579 5579 5579 5579 5579 5579 5579 5580 5580 5580 5580 5580 5580 5581 5582 5584 5585 5588 5590 5594 5599 5602 5607
5589 5585 5582 5580 5578 5576 5574 5573 5571 5570 5569 5568 5567 5567 5567 5568 5568 5568 5568 5569 5569 5569 5570 5570 5570 5570 5570 5570 5571 5573 5574 5576 5578 5581 5585 5589 5593 5597